Change the Weather History Date:

Saturday, February 16, 2013

  Actual Average Record
Temperature  
Mean Temperature 44 °F -  
Max Temperature 59 °F 59 °F 68 °F (2014)
Min Temperature 30 °F 39 °F 28 °F (1999)
Degree Days  
Heating Degree Days 20    
Moisture  
Dew Point 35 °F    
Average Humidity 70    
Maximum Humidity 100    
Minimum Humidity 38    
Precipitation  
Precipitation 0.00 in 0.09 in - ()
Sea Level Pressure  
Sea Level Pressure 30.03 in    
Wind  
Wind Speed 2 mph ()    
Max Wind Speed 7 mph    
Max Gust Speed -    
Visibility 2.0 miles    
Events Fog    
Averages and records for this station are not official NWS values.
T = Trace of Precipitation, MM = Missing Value Source: Averaged Metar Reports

Daily Weather History Graph

Daily Weather History Graph

Search for Another Location

Airport or City:

Trip Planner

Search our weather history database for the weather conditions in past years. The results will help you decide how hot, cold, wet, or windy it might be!

Date:

Astronomy

Feb. 16, 2013 Rise Set
Actual Time 7:04 AM CET 5:44 PM CET
Civil Twilight 6:35 AM CET 6:12 PM CET
Nautical Twilight 6:03 AM CET 6:45 PM CET
Astronomical Twilight 5:31 AM CET 7:17 PM CET
Moon 9:59 AM CET (2/16) No Moon Set
Length of Visible Light 11h 36m
Length of Day
10h 39m
Waxing Crescent, 37% of the Moon is Illuminated
Feb 16
Waxing Crescent
Feb 17
First Quarter
Feb 25
Full
Mar 4
Last Quarter
Mar 11
New

Hourly Weather History & Observations

Time (CET) Temp. Windchill Dew Point Humidity Pressure Visibility Wind Dir Wind Speed Gust Speed Precip Events Conditions
7:03 AM 30.2 °F - 30.2 °F 100% 30.01 in 0.1 mi Calm Calm - N/A Fog Light Freezing Fog
7:50 AM 32.0 °F - 32.0 °F 100% 30.04 in 0.4 mi Variable 1.2 mph - N/A Fog Fog
8:23 AM 35.6 °F - 35.6 °F 100% 30.04 in 1.6 mi Variable 1.2 mph - N/A   Mist
8:33 AM 37.4 °F - 37.4 °F 100% 30.04 in 2.5 mi Calm Calm - N/A   Mist
8:50 AM 39.2 °F - 39.2 °F 100% 30.04 in 2.5 mi Calm Calm - N/A   Mist
9:10 AM 41.0 °F - 39.2 °F 93% 30.04 in 5.0 mi Variable 1.2 mph - N/A   Unknown
9:50 AM 44.6 °F 43.1 °F 37.4 °F 76% 30.04 in - Variable 3.5 mph - N/A   Clear
10:50 AM 48.2 °F - 37.4 °F 66% 30.04 in - Variable 3.5 mph - N/A   Clear
11:50 AM 53.6 °F - 39.2 °F 58% 30.04 in - North 5.8 mph - N/A   Clear
12:50 PM 53.6 °F - 37.4 °F 54% 30.04 in - NNE 4.6 mph - N/A   Clear
1:50 PM 55.4 °F - 32.0 °F 41% 30.01 in - Variable 2.3 mph - N/A   Clear
2:50 PM 57.2 °F - 32.0 °F 38% 30.01 in - Variable 2.3 mph - N/A   Clear
3:50 PM 59.0 °F - 33.8 °F 39% 30.01 in - Variable 2.3 mph - N/A   Clear
4:50 PM 55.4 °F - 37.4 °F 51% 30.01 in - West 6.9 mph - N/A   Clear
5:50 PM 51.8 °F - 37.4 °F 58% 30.01 in - Variable 2.3 mph - N/A   Clear
6:50 PM 48.2 °F - 35.6 °F 62% 30.01 in - Variable 2.3 mph - N/A   Clear
7:50 PM 42.8 °F - 32.0 °F 66% 30.04 in - Calm Calm - N/A   Clear
8:50 PM 42.8 °F - 30.2 °F 61% 30.04 in - Variable 2.3 mph - N/A   Clear
9:50 PM 39.2 °F 35.9 °F 28.4 °F 65% 30.04 in - North 4.6 mph - N/A   Clear